[[{"header":{"parameterUnit":"m.s-1","parameterCategory":1,"la1":30.2992,"la2":30.254,"lo1":-89.0895,"lo2":-89.0443,"dy":0.0025,"dx":0.0025,"nx":19,"ny":19,"refTime":"2026-03-11T21:00:00:Z","depth":0,"parameterNumber":2,"parameterNumberName":"U-component_of_WINDS"},"data":[0,0,0,-4.3935,-4.394,-4.4165,-4.4165,-4.4486,-4.4489,0,0,0,0,0,0,0,0,0,0,0,-4.3888,-4.3891,-4.3934,-4.3941,-4.4165,-4.4165,-4.4485,-4.4489,0,0,0,0,0,0,0,0,0,0,0,-4.3887,-4.389,-4.3894,-4.3941,-4.4164,-4.4165,-4.4485,-4.4304,0,0,0,0,0,0,0,0,0,0,-4.408,-4.4056,-4.3889,-4.3894,-4.3943,-4.4164,-4.4165,-4.4294,-4.4315,-4.4398,0,-4.4477,0,-4.4488,-4.4513,-4.4514,0,0,0,-4.3926,-4.4039,-4.4081,-4.3894,-4.3945,-4.4164,-4.4059,-4.4305,-4.4329,-4.4426,-4.4481,-4.4492,-4.4494,-4.4515,-4.4517,-4.5042,-4.5045,0,0,-4.3914,-4.3939,-4.4065,-4.4097,-4.4064,-4.4052,-4.4067,-4.4319,-4.4382,-4.4482,-4.4499,-4.4499,-4.4517,-4.452,-4.5039,-4.5043,0,0,0,-4.3888,-4.3931,-4.3967,-4.4085,-4.4123,-4.4059,-4.4076,-4.437,-4.438,-4.4503,-4.4503,-4.4519,-4.4524,-4.5036,-4.5041,-4.5218,0,0,0,-4.388,-4.3916,-4.3962,-4.398,-4.4119,-4.4249,-4.4122,-4.4362,-4.439,-4.4501,-4.4519,-4.4527,-4.5032,-4.5038,-4.5206,-4.5298,0,0,0,-4.3867,-4.3914,-4.3953,-4.3981,-4.4078,-4.4245,-4.4268,-4.4368,-4.4391,-4.4514,-4.4528,-4.503,-4.5037,-4.5195,-4.528,-4.5443,0,0,0,-4.386,-4.411,-4.3956,-4.4235,-4.4077,-4.4353,-4.4266,-4.4471,-4.4598,-4.4521,-4.5033,-4.504,-4.5191,-4.5269,-4.5431,-4.5584,-4.565,0,0,-4.4189,-4.415,-4.4312,-4.4181,-4.4491,-4.4316,-4.4653,-4.4746,-4.4735,-4.4941,-4.4953,-4.521,-4.5279,-4.544,-4.6013,-4.6065,0,0,0,-4.4425,-4.4541,-4.4618,-4.4739,-4.4815,-4.4887,-4.4926,-4.496,-4.5132,-4.4846,-4.5312,-4.5353,-4.5446,-4.5518,-4.5563,-4.5641,-4.5075,-4.5074,-4.5073,-4.4927,-4.4898,-4.5163,-4.5162,-4.528,-4.5316,-4.541,-4.5462,-4.54,-4.5511,-4.5572,-4.5922,-4.6007,-4.6041,-4.6123,-4.565,-4.5651,-4.5652,-4.5652,-4.5406,-4.5565,-4.5475,-4.5699,-4.5668,-4.5856,-4.5901,-4.585,-4.6022,-4.5874,-4.5956,-4.5797,-4.6099,-4.6169,-4.5665,-4.5663,-4.5662,-4.566,-4.5659,-4.5731,-4.5802,-4.5838,-4.6009,-4.6144,-4.6133,-4.6301,-4.6267,-4.6236,-4.6316,-4.6376,-4.6373,-4.6365,-4.6347,-4.6348,-4.635,-4.6351,-4.6352,-4.6352,-4.6054,-4.6089,-4.6234,-4.6334,-4.6406,-4.6496,-4.6534,-4.6605,-4.6674,-4.6636,-4.6636,-4.6563,-4.6134,-4.6027,-4.6371,-4.6368,-4.6365,-4.6364,-4.6362,-4.6549,-4.6431,-4.6655,-4.6727,-4.684,-4.6976,-4.6929,-4.7076,-4.7129,-4.7213,-4.7122,-4.6811,-4.6769,-4.6733,-4.6644,-4.7128,-4.7127,-4.7128,-4.7128,-4.6823,-4.6797,-4.7017,-4.7134,-4.7246,-4.7225,-4.748,-4.7512,-4.7526,-4.7558,-4.7483,-4.7361,-4.7326,-4.7305,-4.7257,-4.7173,-4.7781,-4.7781,-4.7782,-4.7124,-4.7108,-4.7331,-4.7341,-4.7427,-4.7502,-4.774,-4.7879,-4.7871,-4.7808,-4.7581,-4.7553,-4.7357,-4.7295,-4.7227,-4.7153,-4.6998,0,0]},{"header":{"parameterUnit":"m.s-1","parameterCategory":1,"la1":30.2992,"la2":30.254,"lo1":-89.0895,"lo2":-89.0443,"dy":0.0025,"dx":0.0025,"nx":19,"ny":19,"refTime":"2026-03-11T21:00:00:Z","depth":0,"parameterNumber":3,"parameterNumberName":"V-component_of_WINDS"},"data":[0,0,0,-0.7642,-0.7639,-0.7542,-0.7541,-0.7397,-0.7396,0,0,0,0,0,0,0,0,0,0,0,-0.7663,-0.7662,-0.7642,-0.7639,-0.7542,-0.7541,-0.7398,-0.7396,0,0,0,0,0,0,0,0,0,0,0,-0.7664,-0.7662,-0.7661,-0.7639,-0.7542,-0.7541,-0.7398,-0.7477,0,0,0,0,0,0,0,0,0,0,-0.7575,-0.7589,-0.7662,-0.7661,-0.7638,-0.7542,-0.7541,-0.7482,-0.7472,-0.7435,0,-0.7403,0,-0.7397,-0.7385,-0.7385,0,0,0,-0.7644,-0.7596,-0.7577,-0.766,-0.7637,-0.7542,-0.7587,-0.7477,-0.7466,-0.7423,-0.7401,-0.7396,-0.7395,-0.7384,-0.7384,-0.7155,-0.7154,0,0,-0.7649,-0.7641,-0.7584,-0.757,-0.7588,-0.759,-0.7584,-0.7471,-0.7445,-0.74,-0.7393,-0.7392,-0.7383,-0.7382,-0.7157,-0.7155,0,0,0,-0.7662,-0.7644,-0.7628,-0.7576,-0.756,-0.7587,-0.758,-0.745,-0.7446,-0.7391,-0.7391,-0.7383,-0.7381,-0.7158,-0.7156,-0.7082,0,0,0,-0.7665,-0.7652,-0.763,-0.7624,-0.7561,-0.7504,-0.7561,-0.7453,-0.7441,-0.7391,-0.7382,-0.7379,-0.716,-0.7157,-0.7087,-0.7046,0,0,0,-0.7672,-0.7652,-0.7636,-0.7624,-0.7582,-0.7506,-0.7496,-0.7451,-0.744,-0.7385,-0.7379,-0.716,-0.7157,-0.7091,-0.7054,-0.698,0,0,0,-0.7676,-0.7573,-0.7635,-0.7519,-0.7582,-0.7463,-0.7497,-0.7408,-0.7352,-0.7382,-0.7159,-0.7156,-0.7093,-0.7059,-0.6985,-0.6914,-0.6885,0,0,-0.754,-0.7556,-0.7488,-0.7541,-0.7408,-0.7479,-0.7334,-0.729,-0.7292,-0.72,-0.7194,-0.7085,-0.7055,-0.6981,-0.6732,-0.6708,0,0,0,-0.7442,-0.7392,-0.736,-0.7307,-0.7272,-0.7237,-0.7217,-0.72,-0.7122,-0.7245,-0.7041,-0.7023,-0.698,-0.6946,-0.6927,-0.6888,-0.7142,-0.7142,-0.7142,-0.7235,-0.7244,-0.7131,-0.7127,-0.7075,-0.7054,-0.7011,-0.6984,-0.7009,-0.696,-0.6931,-0.6779,-0.6739,-0.6724,-0.6684,-0.6898,-0.6898,-0.6898,-0.6897,-0.7033,-0.6962,-0.6997,-0.6899,-0.6907,-0.6824,-0.6799,-0.6818,-0.6739,-0.6802,-0.6765,-0.6829,-0.6698,-0.6663,-0.6892,-0.6893,-0.6893,-0.6894,-0.6894,-0.6895,-0.6862,-0.6845,-0.6767,-0.6705,-0.6704,-0.6626,-0.6637,-0.6647,-0.6611,-0.6578,-0.6579,-0.6577,-0.6595,-0.6595,-0.6594,-0.6594,-0.6593,-0.6593,-0.6756,-0.6739,-0.6673,-0.6626,-0.6591,-0.6547,-0.6524,-0.6489,-0.6452,-0.6466,-0.6466,-0.6491,-0.6687,-0.6732,-0.6585,-0.6586,-0.6587,-0.6588,-0.6589,-0.654,-0.659,-0.6488,-0.6453,-0.6397,-0.6331,-0.6348,-0.6275,-0.6248,-0.6207,-0.6241,-0.6386,-0.6401,-0.6417,-0.6454,-0.6244,-0.6244,-0.6244,-0.6244,-0.6419,-0.643,-0.6326,-0.6268,-0.6214,-0.6218,-0.6096,-0.6075,-0.6062,-0.6044,-0.6077,-0.613,-0.6146,-0.6151,-0.6173,-0.6208,-0.5939,-0.5939,-0.5938,-0.6284,-0.6289,-0.6185,-0.6175,-0.6131,-0.6091,-0.5975,-0.5904,-0.59,-0.5926,-0.6029,-0.6042,-0.6127,-0.6155,-0.618,-0.6213,-0.6278,0,0]}]]